GW6292 Weather Reports


Display with metric or nautical units.
time (UTC)temp
F
wind
direction
speed
MPH
gust
MPH
rain 1hr
in
rain 24hr
in
rain mn
in
humidity
%
barometer
mb
20260507124326 53 24 0.0 0.0 0.00 0.11 0.11 70 1013.6
20260507123825 53 24 0.0 1.0 0.00 0.11 0.11 72 1013.7
20260507123322 53 24 0.0 0.0 0.00 0.11 0.11 71 1013.6
20260507122818 53 24 0.0 0.0 0.00 0.11 0.11 73 1013.7
20260507122313 53 24 0.0 0.0 0.00 0.11 0.11 71 1013.5
20260507121810 53 24 0.0 0.0 0.00 0.11 0.11 69 1013.6
20260507121306 53 24 0.0 0.0 0.00 0.11 0.11 68 1013.6
20260507120802 52 24 0.0 0.0 0.00 0.11 0.11 69 1013.2
20260507120259 52 24 0.0 1.0 0.00 0.11 0.11 70 1013.3
20260507115755 52 24 0.0 0.0 0.00 0.11 0.11 70 1013.3
20260507115250 52 24 0.0 0.0 0.00 0.11 0.11 72 1013.3
20260507114746 52 24 0.0 0.0 0.00 0.11 0.11 71 1013.3
20260507114244 52 24 0.0 0.0 0.00 0.11 0.11 74 1013.3
20260507113741 52 24 1.0 2.0 0.00 0.11 0.11 72 1013.3
20260507113238 52 24 1.0 1.0 0.00 0.11 0.11 75 1013.3
20260507112736 52 24 0.0 0.0 0.00 0.11 0.11 75 1013.3
20260507112232 52 24 3.0 3.0 0.00 0.11 0.11 75 1013.3
20260507111730 52 24 0.0 0.0 0.00 0.11 0.11 78 1013.4
20260507111227 52 24 0.0 0.0 0.00 0.11 0.11 81 1013.4
20260507110722 52 24 0.0 0.0 0.00 0.11 0.11 80 1013.3
20260507110219 52 24 0.0 0.0 0.00 0.11 0.11 80 1013.0
20260507105716 52 24 0.0 0.0 0.00 0.11 0.11 82 1013.2
20260507105212 52 24 1.0 2.0 0.00 0.11 0.11 84 1013.2
20260507104710 53 24 0.0 0.0 0.00 0.11 0.11 86 1013.0
20260507104206 52 24 0.0 0.0 0.00 0.11 0.11 86 1012.9
20260507103702 53 24 0.0 0.0 0.00 0.11 0.11 89 1013.1
20260507103159 53 24 0.0 0.0 0.00 0.11 0.11 90 1012.8
20260507102655 53 24 0.0 0.0 0.00 0.11 0.11 91 1012.9
20260507102152 53 24 0.0 0.0 0.00 0.11 0.11 92 1012.5
20260507101647 53 24 0.0 0.0 0.00 0.11 0.11 92 1012.6
20260507101143 53 24 0.0 0.0 0.00 0.11 0.11 93 1012.5
20260507100641 53 24 0.0 0.0 0.00 0.11 0.11 93 1012.5
20260507100140 53 24 0.0 0.0 0.00 0.11 0.11 93 1012.3
20260507095637 53 24 0.0 0.0 0.00 0.11 0.11 93 1012.7
20260507095133 53 24 0.0 0.0 0.00 0.11 0.11 93 1012.4
20260507094629 53 24 0.0 0.0 0.00 0.11 0.11 93 1012.5
20260507094126 53 24 0.0 0.0 0.00 0.11 0.11 93 1012.3
20260507093624 53 24 0.0 0.0 0.00 0.11 0.11 93 1012.3
20260507093123 53 24 0.0 0.0 0.00 0.11 0.11 93 1012.0
20260507092618 53 24 0.0 0.0 0.00 0.11 0.11 93 1012.1
20260507092115 53 24 0.0 0.0 0.00 0.11 0.11 92 1012.0
20260507091612 53 24 0.0 0.0 0.00 0.11 0.11 92 1012.1
20260507091108 53 24 0.0 0.0 0.00 0.11 0.11 91 1012.4
20260507090604 53 24 0.0 0.0 0.00 0.11 0.11 90 1012.6
20260507090101 53 24 1.0 1.0 0.00 0.11 0.11 89 1012.5
20260507085558 53 24 0.0 0.0 0.00 0.11 0.11 89 1012.4
20260507085055 53 24 0.0 0.0 0.00 0.11 0.11 88 1012.1
20260507084551 53 24 0.0 1.0 0.00 0.11 0.11 89 1012.1
20260507084048 53 24 0.0 0.0 0.00 0.11 0.11 89 1011.9
20260507083544 53 24 0.0 0.0 0.00 0.11 0.11 89 1012.1
20260507083042 53 24 0.0 1.0 0.00 0.11 0.11 89 1012.0
20260507082537 53 24 1.0 1.0 0.00 0.11 0.11 90 1011.8
20260507082034 53 24 0.0 0.0 0.00 0.11 0.11 90 1011.9
20260507081530 53 24 0.0 0.0 0.00 0.11 0.11 90 1011.6
20260507081028 54 24 1.0 2.0 0.00 0.11 0.11 90 1011.4
20260507080523 53 24 0.0 0.0 0.00 0.11 0.11 91 1011.4
20260507080020 54 24 1.0 2.0 0.00 0.11 0.11 91 1011.5
20260507075515 54 24 1.0 2.0 0.00 0.11 0.11 90 1011.2
20260507075012 54 24 4.0 4.0 0.00 0.11 0.11 90 1011.3
20260507074509 54 24 2.0 2.0 0.00 0.11 0.11 90 1011.3
20260507074008 54 24 0.0 1.0 0.00 0.11 0.11 90 1011.2
20260507073503 54 24 2.0 2.0 0.00 0.11 0.11 90 1011.2
20260507073000 54 24 0.0 1.0 0.00 0.11 0.11 91 1011.2
20260507072457 54 24 1.0 2.0 0.00 0.11 0.11 90 1011.3
20260507071954 54 24 1.0 1.0 0.00 0.11 0.11 90 1011.4
20260507071451 55 24 2.0 2.0 0.00 0.11 0.11 90 1011.4
20260507070948 55 24 0.0 0.0 0.00 0.11 0.11 89 1011.2
20260507070445 55 24 0.0 1.0 0.00 0.11 0.11 90 1011.1
20260507065942 55 24 0.0 1.0 0.00 0.11 0.11 90 1011.2
20260507065439 55 24 1.0 2.0 0.00 0.11 0.11 90 1011.3
20260507064936 55 24 4.0 4.0 0.00 0.11 0.11 91 1011.4
20260507064434 55 24 0.0 0.0 0.00 0.11 0.11 92 1011.3
20260507063932 55 24 1.0 2.0 0.00 0.11 0.11 92 1011.2
20260507063428 56 24 0.0 1.0 0.00 0.11 0.11 93 1011.4
20260507062926 56 24 0.0 1.0 0.00 0.11 0.11 93 1011.5
20260507062423 56 24 0.0 0.0 0.00 0.11 0.11 93 1011.2
20260507061920 55 24 0.0 1.0 0.00 0.11 0.11 93 1011.4
20260507061418 56 24 2.0 2.0 0.00 0.11 0.11 93 1011.3
20260507060916 56 24 0.0 1.0 0.00 0.11 0.11 94 1011.1
20260507060412 56 24 0.0 0.0 0.00 0.11 0.11 94 1011.4
20260507055909 56 24 1.0 2.0 0.05 0.11 0.11 94 1011.6
20260507055404 56 24 0.0 0.0 0.05 0.11 0.11 94 1011.5
20260507054902 56 24 0.0 0.0 0.00 0.10 0.10 93 1011.2
20260507054357 56 24 0.0 0.0 0.00 0.10 0.10 93 1011.3
20260507053855 56 24 0.0 0.0 0.00 0.10 0.10 93 1011.5
20260507053353 56 24 0.0 1.0 0.00 0.10 0.10 93 1011.3
20260507052851 56 24 0.0 0.0 0.07 0.10 0.10 92 1011.6
20260507052348 56 24 0.0 0.0 0.07 0.10 0.10 92 1011.7
20260507051845 56 24 0.0 0.0 0.00 0.09 0.09 92 1011.6
20260507051343 57 24 0.0 0.0 0.00 0.09 0.09 91 1011.6
20260507050839 57 24 0.0 0.0 0.05 0.09 0.09 90 1011.5
20260507050336 57 24 0.0 0.0 0.05 0.09 0.09 89 1011.7
20260507045833 57 24 0.0 1.0 0.31 0.08 0.08 89 1011.8
20260507045329 57 24 0.0 1.0 0.35 0.08 0.08 87 1012.1
20260507044826 58 24 0.0 0.0 0.19 0.03 0.03 86 1011.3
20260507044323 59 24 0.0 1.0 0.14 0.02 0.02 84 1011.2
20260507043819 59 24 0.0 0.0 0.00 0.00 0.00 82 1011.4
20260507043316 59 24 2.0 2.0 0.00 0.00 0.00 81 1011.5
20260507042812 59 24 1.0 2.0 0.00 0.00 0.00 79 1011.5
20260507042308 60 24 2.0 2.0 0.00 0.00 0.00 79 1011.6
20260507041805 60 24 0.0 1.0 0.00 0.00 0.00 79 1011.6
20260507041301 60 24 0.0 0.0 0.00 0.00 0.00 78 1011.5
20260507040758 60 24 1.0 1.0 0.00 0.00 0.00 78 1011.1
20260507040254 61 24 1.0 1.0 0.00 0.00 0.00 77 1011.4
20260507035751 61 24 0.0 0.0 0.00 0.25 0.25 76 1011.1
20260507035246 61 24 1.0 2.0 0.00 0.25 0.25 75 1010.8
20260507034744 62 24 2.0 2.0 0.00 0.25 0.25 75 1010.5
20260507034240 62 24 0.0 0.0 0.00 0.25 0.25 74 1010.9
20260507033739 62 24 1.0 2.0 0.00 0.25 0.25 74 1011.0
20260507033236 62 24 0.0 0.0 0.00 0.25 0.25 74 1010.6
20260507032733 62 24 0.0 1.0 0.00 0.25 0.25 74 1011.0
20260507032229 62 24 1.0 1.0 0.00 0.25 0.25 73 1010.9
20260507031726 62 24 1.0 1.0 0.00 0.25 0.25 74 1011.0
20260507031223 62 24 2.0 3.0 0.00 0.25 0.25 75 1010.9
20260507030720 63 24 4.0 7.0 0.00 0.25 0.25 75 1011.0
20260507030217 63 24 1.0 2.0 0.00 0.25 0.25 76 1010.7
20260507025714 63 24 2.0 2.0 0.00 0.25 0.25 76 1010.5
20260507025211 63 24 3.0 4.0 0.00 0.25 0.25 78 1010.5
20260507024709 64 24 4.0 4.0 0.00 0.25 0.25 78 1010.6
20260507024206 64 24 0.0 1.0 0.00 0.25 0.25 77 1010.6
20260507023701 64 24 2.0 2.0 0.00 0.25 0.25 77 1010.3
20260507023159 64 24 0.0 1.0 0.00 0.25 0.25 77 1010.5
20260507022656 64 24 3.0 3.0 0.00 0.25 0.25 77 1010.6
20260507022152 64 24 1.0 1.0 0.00 0.25 0.25 77 1010.3
20260507021648 64 24 2.0 2.0 0.00 0.25 0.25 78 1010.4
20260507021143 64 24 4.0 4.0 0.00 0.25 0.25 78 1010.0
20260507020642 64 24 1.0 1.0 0.00 0.25 0.25 79 1009.8
20260507020138 65 24 0.0 0.0 0.00 0.25 0.25 79 1010.2
20260507015637 65 24 1.0 2.0 0.00 0.25 0.25 79 1010.0
20260507015134 65 24 1.0 1.0 0.00 0.25 0.25 80 1010.3
20260507014630 65 24 0.0 0.0 0.00 0.25 0.25 80 1010.0
20260507014126 65 24 0.0 0.0 0.00 0.25 0.25 80 1009.9
20260507013623 65 24 2.0 2.0 0.00 0.25 0.25 79 1010.4
20260507013120 66 24 4.0 4.0 0.00 0.25 0.25 79 1010.2
20260507012617 66 24 0.0 1.0 0.00 0.25 0.25 79 1010.3
20260507012113 66 24 1.0 1.0 0.00 0.25 0.25 79 1010.3
20260507011611 66 24 1.0 1.0 0.00 0.25 0.25 79 1010.2
20260507011107 67 24 0.0 0.0 0.00 0.25 0.25 78 1010.2
20260507010602 67 24 3.0 3.0 0.00 0.25 0.25 79 1010.3
20260507010058 67 24 1.0 1.0 0.00 0.25 0.25 81 1010.6
20260507005556 67 24 0.0 0.0 0.00 0.25 0.25 83 1010.3
20260507005052 67 24 0.0 0.0 0.00 0.25 0.25 84 1009.8
20260507004549 67 24 0.0 0.0 0.00 0.25 0.25 84 1009.9
20260507004046 67 24 0.0 0.0 0.00 0.25 0.25 83 1009.9
20260507003542 67 24 0.0 0.0 0.00 0.25 0.25 83 1009.9
20260507003037 67 23 0.0 0.0 0.00 0.25 0.25 82 1009.7
20260507002534 67 24 0.0 0.0 0.00 0.25 0.25 82 1009.6
20260507002030 67 24 2.0 2.0 0.00 0.25 0.25 82 1009.8
20260507001527 67 24 0.0 0.0 0.00 0.25 0.25 82 1009.7
20260507001025 67 24 0.0 1.0 0.00 0.25 0.25 82 1009.8
20260507000520 67 23 0.0 1.0 0.00 0.25 0.25 83 1009.6
20260507000016 67 23 0.0 0.0 0.00 0.25 0.25 82 1009.4
20260506235514 67 23 1.0 1.0 0.00 0.25 0.25 83 1009.5
20260506235009 67 23 0.0 1.0 0.00 0.25 0.25 83 1009.4
20260506234507 67 24 0.0 0.0 0.00 0.25 0.25 85 1009.5
20260506234004 67 23 0.0 0.0 0.00 0.25 0.25 85 1009.1
20260506233500 67 23 0.0 0.0 0.00 0.25 0.25 84 1009.0
20260506232957 68 23 0.0 0.0 0.00 0.25 0.25 83 1009.3
20260506232453 68 23 0.0 0.0 0.00 0.25 0.25 83 1009.3
20260506231949 68 23 0.0 0.0 0.00 0.25 0.25 83 1009.2
20260506231447 68 23 0.0 0.0 0.00 0.25 0.25 81 1009.0
20260506230944 69 23 0.0 0.0 0.00 0.25 0.25 82 1009.1
20260506230440 69 23 1.0 1.0 0.00 0.25 0.25 78 1009.0
20260506225937 69 23 0.0 0.0 0.00 0.25 0.25 78 1009.1
20260506225434 69 23 0.0 1.0 0.00 0.25 0.25 77 1008.9
20260506224931 69 23 1.0 1.0 0.00 0.25 0.25 77 1009.0
20260506224428 69 23 1.0 1.0 0.00 0.25 0.25 78 1009.1
20260506223925 69 23 2.0 2.0 0.00 0.25 0.25 76 1008.7
20260506223420 70 23 2.0 2.0 0.00 0.25 0.25 75 1008.9
20260506222917 69 23 0.0 0.0 0.00 0.25 0.25 77 1008.8
20260506222414 69 23 1.0 1.0 0.00 0.25 0.25 76 1008.9
20260506221911 69 23 2.0 2.0 0.00 0.25 0.25 77 1009.0
20260506221408 69 23 4.0 4.0 0.00 0.25 0.25 76 1008.9
20260506220906 69 23 1.0 2.0 0.00 0.25 0.25 76 1009.1
20260506220401 69 23 0.0 1.0 0.00 0.25 0.25 76 1008.9
20260506215858 69 23 3.0 4.0 0.00 0.25 0.25 76 1008.9
20260506215354 69 23 4.0 6.0 0.00 0.25 0.25 75 1009.1
20260506214850 69 23 4.0 4.0 0.00 0.25 0.25 75 1009.0
20260506214347 69 23 3.0 4.0 0.00 0.25 0.25 74 1009.0
20260506213845 70 23 3.0 3.0 0.00 0.25 0.25 74 1008.8
20260506213342 70 23 3.0 3.0 0.00 0.25 0.25 74 1009.1
20260506212839 70 23 2.0 2.0 0.00 0.25 0.25 73 1008.8
20260506212335 71 23 3.0 4.0 0.00 0.25 0.25 72 1008.7
20260506211830 71 23 1.0 2.0 0.00 0.25 0.25 72 1008.5
20260506211326 71 23 2.0 2.0 0.00 0.25 0.25 73 1008.5
20260506210824 70 23 2.0 2.0 0.00 0.25 0.25 74 1008.6
20260506210320 70 23 2.0 2.0 0.00 0.25 0.25 73 1008.5
20260506205818 70 23 2.0 2.0 0.00 0.25 0.25 74 1008.5
20260506205314 70 23 1.0 1.0 0.00 0.25 0.25 75 1008.4
20260506204810 70 23 2.0 2.0 0.00 0.25 0.25 73 1008.5
20260506204308 70 23 1.0 2.0 0.00 0.25 0.25 73 1008.4
20260506203806 70 23 1.0 1.0 0.00 0.25 0.25 74 1008.2
20260506203303 70 23 4.0 4.0 0.00 0.25 0.25 75 1008.4
20260506202759 69 23 2.0 4.0 0.00 0.25 0.25 74 1008.3
20260506202256 69 23 2.0 3.0 0.00 0.25 0.25 74 1008.6
20260506201753 70 23 4.0 7.0 0.00 0.25 0.25 74 1008.4
20260506201249 71 23 2.0 3.0 0.00 0.25 0.25 73 1008.4
20260506200747 72 23 4.0 6.0 0.00 0.25 0.25 70 1008.6
20260506200243 72 23 4.0 6.0 0.00 0.25 0.25 69 1008.3
20260506195739 71 23 2.0 2.0 0.00 0.25 0.25 73 1008.4
20260506195236 71 23 1.0 4.0 0.00 0.25 0.25 71 1008.3
20260506194733 71 23 2.0 2.0 0.00 0.25 0.25 73 1008.4
20260506194230 71 23 2.0 2.0 0.00 0.25 0.25 72 1008.4
20260506193728 71 23 3.0 3.0 0.00 0.25 0.25 72 1008.6
20260506193224 70 23 3.0 3.0 0.00 0.25 0.25 72 1008.5
20260506192721 70 23 1.0 2.0 0.00 0.25 0.25 73 1008.6
20260506192217 70 23 0.0 0.0 0.00 0.25 0.25 74 1008.7
20260506191714 70 23 6.0 8.0 0.00 0.25 0.25 73 1008.6
20260506191210 69 23 3.0 4.0 0.00 0.25 0.25 73 1008.7
20260506190708 70 23 2.0 2.0 0.00 0.25 0.25 74 1008.5
20260506190204 69 23 1.0 1.0 0.00 0.25 0.25 75 1008.8
20260506185702 69 23 5.0 7.0 0.00 0.25 0.25 75 1008.9
20260506185158 69 23 2.0 4.0 0.00 0.25 0.25 76 1009.0
20260506184656 68 23 2.0 3.0 0.00 0.25 0.25 76 1008.9
20260506184153 68 23 1.0 2.0 0.00 0.25 0.25 76 1009.0
20260506183649 68 23 2.0 3.0 0.00 0.25 0.25 77 1009.2
20260506183145 68 23 1.0 2.0 0.00 0.25 0.25 77 1009.2
20260506182643 67 23 4.0 6.0 0.00 0.25 0.25 77 1009.2
20260506182139 67 23 4.0 6.0 0.00 0.25 0.25 78 1009.3
20260506181637 67 23 1.0 1.0 0.00 0.25 0.25 80 1009.2
20260506181134 67 23 5.0 7.0 0.00 0.25 0.25 80 1009.2
20260506180631 66 23 2.0 3.0 0.00 0.25 0.25 80 1009.4
20260506180128 66 23 4.0 8.0 0.00 0.25 0.25 81 1009.3
20260506175624 66 23 1.0 1.0 0.00 0.25 0.25 81 1009.4
20260506175120 66 23 2.0 3.0 0.00 0.25 0.25 82 1009.3
20260506174619 65 23 1.0 2.0 0.00 0.25 0.25 84 1009.4
20260506174115 65 23 5.0 8.0 0.00 0.25 0.25 82 1009.6
20260506173613 65 23 4.0 4.0 0.00 0.25 0.25 82 1009.3
20260506173109 65 23 3.0 3.0 0.00 0.25 0.25 83 1009.3
20260506172607 65 23 5.0 7.0 0.00 0.25 0.25 83 1009.3
20260506172103 65 23 3.0 4.0 0.00 0.25 0.25 84 1009.4
20260506171601 65 23 4.0 4.0 0.00 0.25 0.25 84 1009.5
20260506171058 64 23 3.0 4.0 0.00 0.25 0.25 84 1009.6
20260506170555 64 23 2.0 3.0 0.00 0.25 0.25 86 1009.6
20260506170053 64 23 8.0 11.0 0.00 0.25 0.25 85 1009.5
20260506165551 64 23 3.0 4.0 0.00 0.25 0.25 86 1009.6
20260506165047 64 23 2.0 3.0 0.00 0.25 0.25 88 1009.6
20260506164544 63 23 3.0 4.0 0.00 0.25 0.25 88 1009.5
20260506164042 63 23 0.0 1.0 0.00 0.25 0.25 89 1009.7
20260506163537 63 23 3.0 3.0 0.00 0.25 0.25 88 1009.8
20260506163033 63 23 3.0 7.0 0.00 0.25 0.25 89 1009.8
20260506162530 63 23 4.0 7.0 0.00 0.25 0.25 89 1009.8
20260506162027 62 23 4.0 6.0 0.00 0.25 0.25 90 1009.7
20260506161525 62 23 1.0 1.0 0.00 0.25 0.25 90 1009.7
20260506161021 62 23 1.0 2.0 0.00 0.25 0.25 90 1009.8
20260506160519 62 23 2.0 2.0 0.00 0.25 0.25 90 1009.7
20260506160016 62 23 3.0 4.0 0.00 0.25 0.25 90 1009.8
20260506155515 62 23 3.0 3.0 0.00 0.25 0.25 91 1009.9
20260506153646 61 24 5.0 8.0 0.00 0.25 0.25 92 1009.9
20260506153143 61 23 1.0 2.0 0.00 0.25 0.25 92 1010.1
20260506152640 61 24 6.0 8.0 0.05 0.25 0.25 92 1010.0
20260506152137 61 24 7.0 9.0 0.05 0.25 0.25 93 1010.0
20260506151636 60 23 1.0 2.0 0.00 0.24 0.24 93 1010.2
20260506151132 61 24 4.0 6.0 0.00 0.24 0.24 93 1010.2
20260506150629 61 24 11.0 14.0 0.07 0.24 0.24 93 1010.1
20260506150126 61 24 2.0 3.0 0.07 0.24 0.24 93 1010.3
20260506145623 61 24 4.0 7.0 0.00 0.23 0.23 93 1010.4
20260506145120 61 24 2.0 2.0 0.00 0.23 0.23 93 1010.5
20260506144617 61 23 2.0 2.0 0.05 0.23 0.23 93 1010.8
20260506144114 61 23 1.0 2.0 0.05 0.23 0.23 93 1010.7
20260506143612 60 24 3.0 3.0 0.07 0.22 0.22 93 1010.7
20260506143110 60 23 3.0 6.0 0.07 0.22 0.22 93 1010.5
20260506142607 60 24 5.0 7.0 0.00 0.21 0.21 93 1010.6
20260506142105 60 24 1.0 1.0 0.12 0.21 0.21 93 1010.7
20260506141602 60 24 2.0 2.0 0.12 0.21 0.21 93 1010.4
20260506141101 60 24 0.0 0.0 0.05 0.19 0.19 92 1010.4
20260506140558 60 24 4.0 7.0 0.17 0.19 0.19 92 1010.6
20260506140055 61 24 5.0 8.0 0.19 0.18 0.18 92 1010.4
20260506135552 61 23 4.0 7.0 0.17 0.17 0.17 92 1010.5
20260506135048 61 24 4.0 4.0 0.12 0.15 0.15 92 1010.7
20260506134545 61 24 0.0 0.0 0.14 0.14 0.14 92 1010.7
20260506134041 61 24 3.0 3.0 0.19 0.13 0.13 92 1010.8
20260506133538 61 23 3.0 3.0 0.17 0.12 0.12 92 1010.6
20260506133035 61 24 1.0 1.0 0.12 0.10 0.10 92 1010.9
20260506132532 61 23 0.0 0.0 0.07 0.09 0.09 92 1011.2
20260506132029 61 23 1.0 2.0 0.00 0.08 0.08 92 1011.1
20260506131526 61 23 0.0 1.0 0.05 0.08 0.08 91 1011.1
20260506131023 61 23 0.0 0.0 0.12 0.08 0.08 92 1010.7
20260506130520 61 23 1.0 2.0 0.12 0.07 0.07 91 1010.8
20260506130017 61 23 1.0 2.0 0.05 0.06 0.06 91 1010.7
20260506125515 61 23 0.0 0.0 0.00 0.05 0.05 91 1010.6
20260506125013 61 23 1.0 1.0 0.07 0.05 0.05 91 1010.4